Weather History for KAXX - April, 2014

Change the Weather History Date:

Sunday, April 13, 2014

  Actual Average (KSKX) Record (KSKX)
Temperature  
Mean Temperature 40 °F -  
Max Temperature 56 °F 57 °F 77 °F (2006)
Min Temperature 23 °F 24 °F 17 °F (1997)
Degree Days  
Heating Degree Days 26    
Moisture  
Dew Point 26 °F    
Average Humidity 61    
Maximum Humidity 93    
Minimum Humidity 24    
Precipitation  
Precipitation 0.02 in - - ()
Sea Level Pressure  
Sea Level Pressure 29.84 in    
Wind  
Wind Speed 10 mph (WSW)    
Max Wind Speed 28 mph    
Max Gust Speed 44 mph    
Visibility 9 miles    
Events Rain , Snow    
Averages and records for this station are not official NWS values.
T = Trace of Precipitation, MM = Missing Value Source: NWS Daily Summary

Daily Weather History Graph

Daily Weather History Graph

Search for Another Location

Airport or City:

Trip Planner

Search our weather history database for the weather conditions in past years. The results will help you decide how hot, cold, wet, or windy it might be!

Date:

Astronomy

Apr. 13, 2014 Rise Set
Actual Time 6:30 AM MDT 7:33 PM MDT
Civil Twilight 6:03 AM MDT 8:00 PM MDT
Nautical Twilight 5:32 AM MDT 8:31 PM MDT
Astronomical Twilight 4:59 AM MDT 9:04 PM MDT
Moon 6:16 PM MDT (4/13) 5:27 AM MDT (4/13)
Length of Visible Light 13h 56m
Length of Day
13h 03m
Waxing Gibbous, 97% of the Moon is Illuminated
Apr 13
Waxing Gibbous
Apr 15
Full
Apr 22
Last Quarter
Apr 29
New
May 6
First Quarter

Hourly Weather History & Observations

Time (MDT) Temp. Windchill Dew Point Humidity Pressure Visibility Wind Dir Wind Speed Gust Speed Precip Events Conditions
12:15 AM 41.9 °F 35.9 °F 26.4 °F 54% 29.87 in 10.0 mi West 10.4 mph 21.9 mph N/A   Scattered Clouds
12:18 AM 42.8 °F 38.6 °F 26.6 °F 53% 29.87 in 10.0 mi West 6.9 mph 21.9 mph N/A   Scattered Clouds
12:35 AM 40.5 °F 36.5 °F 28.6 °F 63% 29.85 in 10.0 mi ENE 5.8 mph - N/A   Clear
12:38 AM 39.2 °F 31.6 °F 28.4 °F 65% 29.85 in 10.0 mi ENE 12.7 mph - N/A   Clear
12:55 AM 38.1 °F 35.7 °F 27.9 °F 67% 29.84 in 10.0 mi SSE 3.5 mph - N/A   Clear
12:58 AM 37.4 °F 34.9 °F 28.4 °F 70% 29.84 in 10.0 mi WSW 3.5 mph - N/A   Clear
1:15 AM 33.6 °F 29.4 °F 27.9 °F 79% 29.84 in 10.0 mi WSW 4.6 mph - N/A   Clear
1:18 AM 33.8 °F - 26.6 °F 75% 29.84 in 10.0 mi Calm Calm - N/A   Clear
1:35 AM 32.2 °F - 27.5 °F 83% 29.84 in 10.0 mi Calm Calm - N/A   Clear
1:38 AM 32.0 °F - 26.6 °F 80% 29.84 in 10.0 mi Calm Calm - N/A   Clear
1:55 AM 31.5 °F - 27.1 °F 84% 29.83 in 10.0 mi Calm Calm - N/A   Clear
1:58 AM 32.0 °F 28.7 °F 26.6 °F 80% 29.83 in 10.0 mi ENE 3.5 mph - N/A   Clear
2:15 AM 31.5 °F - 26.6 °F 82% 29.83 in 10.0 mi Calm Calm - N/A   Clear
2:18 AM 30.2 °F - 26.6 °F 86% 29.83 in 10.0 mi Calm Calm - N/A   Clear
2:35 AM 32.9 °F 27.5 °F 26.6 °F 78% 29.82 in 10.0 mi SSW 5.8 mph - N/A   Clear
2:38 AM 32.0 °F - 26.6 °F 80% 29.82 in 10.0 mi Calm Calm - N/A   Clear
2:55 AM 32.0 °F 28.7 °F 26.2 °F 79% 29.82 in 10.0 mi South 3.5 mph - N/A   Clear
2:58 AM 32.0 °F - 26.6 °F 80% 29.81 in 10.0 mi Calm Calm - N/A   Clear
3:15 AM 34.9 °F 32.0 °F 25.7 °F 69% 29.82 in 10.0 mi NNW 3.5 mph - N/A   Clear
3:18 AM 35.6 °F - 24.8 °F 65% 29.82 in 10.0 mi Calm Calm - N/A   Clear
3:35 AM 39.2 °F 35.9 °F 25.2 °F 57% 29.82 in 10.0 mi North 4.6 mph - N/A   Clear
3:38 AM 39.2 °F 35.0 °F 24.8 °F 56% 29.82 in 10.0 mi North 5.8 mph - N/A   Clear
3:55 AM 35.1 °F - 25.7 °F 69% 29.82 in 10.0 mi Calm Calm - N/A   Clear
3:58 AM 35.6 °F 31.7 °F 24.8 °F 65% 29.82 in 10.0 mi West 4.6 mph - N/A   Clear
4:15 AM 33.6 °F 26.2 °F 25.5 °F 72% 29.81 in 10.0 mi WSW 9.2 mph - N/A   Clear
4:18 AM 33.8 °F 27.7 °F 26.6 °F 75% 29.80 in 10.0 mi WSW 6.9 mph - N/A   Scattered Clouds
4:35 AM 40.1 °F 30.7 °F 27.1 °F 60% 29.81 in 10.0 mi West 19.6 mph 26.5 mph N/A   Mostly Cloudy
4:38 AM 41.0 °F 30.9 °F 26.6 °F 57% 29.81 in 10.0 mi West 24.2 mph 33.4 mph N/A   Mostly Cloudy
4:55 AM 41.0 °F 32.5 °F 27.3 °F 58% 29.81 in 10.0 mi West 17.3 mph 24.2 mph N/A   Overcast
4:58 AM 41.0 °F 33.1 °F 26.6 °F 57% 29.80 in 10.0 mi West 15.0 mph 24.2 mph N/A   Overcast
5:15 AM 39.7 °F 30.6 °F 28.9 °F 65% 29.82 in 7.0 mi West 18.4 mph 43.7 mph N/A   Overcast
5:18 AM 39.2 °F 30.5 °F 28.4 °F 65% 29.82 in 7.0 mi West 16.1 mph 43.7 mph N/A Rain Light Rain
5:35 AM 40.5 °F 31.5 °F 27.1 °F 59% 29.82 in 10.0 mi West 18.4 mph 27.6 mph N/A   Overcast
5:55 AM 40.3 °F 34.9 °F 27.5 °F 60% 29.83 in 10.0 mi NW 8.1 mph - N/A   Overcast
5:58 AM 39.2 °F 33.0 °F 26.6 °F 61% 29.83 in 10.0 mi NW 9.2 mph - N/A   Overcast
6:15 AM 40.1 °F 34.7 °F 26.4 °F 58% 29.83 in 10.0 mi West 8.1 mph - N/A   Overcast
6:18 AM 39.2 °F 32.5 °F 26.6 °F 61% 29.83 in 10.0 mi West 10.4 mph - N/A   Overcast
6:35 AM 40.5 °F 35.8 °F 26.1 °F 57% 29.82 in 10.0 mi WSW 6.9 mph - N/A   Overcast
6:38 AM 39.2 °F 33.6 °F 26.6 °F 61% 29.82 in 10.0 mi West 8.1 mph - N/A   Overcast
6:55 AM 40.3 °F 32.2 °F 27.3 °F 60% 29.83 in 10.0 mi WNW 15.0 mph 18.4 mph N/A   Overcast
6:58 AM 39.2 °F 29.8 °F 28.4 °F 65% 29.84 in 10.0 mi WSW 18.4 mph 23.0 mph N/A   Overcast
7:15 AM 36.7 °F 28.4 °F 29.8 °F 76% 29.83 in 7.0 mi West 12.7 mph 19.6 mph N/A Snow Light Snow
7:18 AM 37.4 °F 29.8 °F 28.4 °F 70% 29.84 in 10.0 mi West 11.5 mph - N/A   Overcast
7:35 AM 38.3 °F 32.5 °F 28.4 °F 68% 29.84 in 10.0 mi West 8.1 mph - N/A   Mostly Cloudy
7:38 AM 37.4 °F 32.8 °F 28.4 °F 70% 29.84 in 10.0 mi WNW 5.8 mph - N/A   Mostly Cloudy
7:55 AM 41.0 °F 35.2 °F 26.8 °F 57% 29.84 in 10.0 mi WNW 9.2 mph - N/A   Mostly Cloudy
7:58 AM 41.0 °F 36.4 °F 26.6 °F 57% 29.84 in 10.0 mi NW 6.9 mph - N/A   Scattered Clouds
8:10 AM 42.4 °F 36.5 °F 27.0 °F 54% 29.84 in 10.0 mi WNW 10.4 mph - N/A   Scattered Clouds
8:17 AM 42.8 °F 37.5 °F 26.6 °F 53% 29.84 in 10.0 mi WNW 9.2 mph - N/A   Clear
8:35 AM 43.9 °F 35.9 °F 26.8 °F 51% 29.83 in 10.0 mi West 18.4 mph 23.0 mph N/A   Clear
8:50 AM 44.6 °F 36.9 °F 27.0 °F 50% 29.84 in 10.0 mi West 18.4 mph 23.0 mph N/A   Clear
8:57 AM 44.6 °F 37.2 °F 26.6 °F 49% 29.84 in 10.0 mi West 17.3 mph 26.5 mph N/A   Clear
9:15 AM 45.7 °F 37.6 °F 26.4 °F 47% 29.84 in 10.0 mi West 21.9 mph 29.9 mph N/A   Clear
9:18 AM 46.4 °F 38.5 °F 26.6 °F 46% 29.84 in 10.0 mi West 21.9 mph 29.9 mph N/A   Clear
9:35 AM 46.2 °F 38.5 °F 26.6 °F 46% 29.84 in 10.0 mi WSW 20.7 mph 27.6 mph N/A   Clear
9:38 AM 46.4 °F 39.0 °F 26.6 °F 46% 29.84 in 10.0 mi West 19.6 mph 27.6 mph N/A   Clear
9:55 AM 46.6 °F - 25.7 °F 44% 29.84 in 10.0 mi West 20.7 mph 31.1 mph N/A   Clear
9:58 AM 46.4 °F 39.0 °F 24.8 °F 43% 29.84 in 10.0 mi West 19.6 mph 28.8 mph N/A   Clear
10:15 AM 48.2 °F - 25.7 °F 42% 29.84 in 10.0 mi West 24.2 mph 31.1 mph N/A   Clear
10:18 AM 48.2 °F - 24.8 °F 40% 29.84 in 10.0 mi WSW 18.4 mph 31.1 mph N/A   Clear
10:35 AM 48.4 °F - 23.2 °F 37% 29.84 in 10.0 mi West 16.1 mph 28.8 mph N/A   Clear
10:38 AM 48.2 °F - 23.0 °F 37% 29.84 in 10.0 mi West 13.8 mph 23.0 mph N/A   Clear
10:55 AM 49.6 °F - 21.9 °F 34% 29.84 in 10.0 mi West 13.8 mph 32.2 mph N/A   Clear
10:58 AM 50.0 °F - 21.2 °F 32% 29.84 in 10.0 mi WSW 17.3 mph 32.2 mph N/A   Clear
11:15 AM 50.4 °F - 22.3 °F 33% 29.84 in 10.0 mi West 18.4 mph 26.5 mph N/A   Clear
11:18 AM 51.8 °F - 21.2 °F 30% 29.84 in 10.0 mi WSW 25.3 mph 34.5 mph N/A   Clear
11:35 AM 51.6 °F - 21.9 °F 31% 29.83 in 10.0 mi West 26.5 mph 36.8 mph N/A   Clear
11:58 AM 53.6 °F - 21.2 °F 28% 29.82 in 10.0 mi West 18.4 mph 38.0 mph N/A   Clear
12:15 PM 53.1 °F - 19.8 °F 27% 29.82 in 10.0 mi SW 25.3 mph 34.5 mph N/A   Clear
12:18 PM 53.6 °F - 19.4 °F 26% 29.81 in 10.0 mi SW 23.0 mph 34.5 mph N/A   Clear
12:35 PM 53.6 °F - 20.7 °F 28% 29.81 in 10.0 mi WSW 27.6 mph 38.0 mph N/A   Scattered Clouds
12:38 PM 53.6 °F - 19.4 °F 26% 29.81 in 10.0 mi SW 27.6 mph 38.0 mph N/A   Scattered Clouds
12:55 PM 52.3 °F - 19.2 °F 27% 29.83 in 10.0 mi WSW 19.6 mph 34.5 mph N/A   Mostly Cloudy
12:58 PM 51.8 °F - 19.4 °F 28% 29.83 in 10.0 mi WSW 18.4 mph 34.5 mph N/A   Mostly Cloudy
1:15 PM 52.5 °F - 18.7 °F 26% 29.82 in 10.0 mi WSW 19.6 mph 31.1 mph N/A   Overcast
1:18 PM 51.8 °F - 19.4 °F 28% 29.81 in 10.0 mi WSW 12.7 mph 31.1 mph N/A   Overcast
1:35 PM 53.2 °F - 19.8 °F 27% 29.81 in 10.0 mi WSW 16.1 mph 28.8 mph N/A   Overcast
1:38 PM 53.6 °F - 21.2 °F 28% 29.80 in 10.0 mi SW 16.1 mph 28.8 mph N/A   Overcast
1:55 PM 56.3 °F - 20.7 °F 25% 29.79 in 10.0 mi WSW 25.3 mph 34.5 mph N/A   Mostly Cloudy
1:58 PM 55.4 °F - 19.4 °F 25% 29.79 in 10.0 mi SW 23.0 mph 39.1 mph N/A   Mostly Cloudy
2:15 PM 54.0 °F - 18.7 °F 25% 29.78 in 10.0 mi WSW 17.3 mph 25.3 mph N/A   Mostly Cloudy
2:18 PM 53.6 °F - 17.6 °F 24% 29.78 in 10.0 mi West 15.0 mph 25.3 mph N/A   Mostly Cloudy
2:35 PM 52.7 °F - 18.1 °F 26% 29.78 in 10.0 mi West 21.9 mph 28.8 mph N/A   Mostly Cloudy
2:38 PM 51.8 °F - 17.6 °F 26% 29.79 in 10.0 mi WSW 26.5 mph 35.7 mph N/A   Overcast
2:55 PM 44.4 °F 37.5 °F 31.6 °F 61% 29.84 in 7.0 mi South 15.0 mph 34.5 mph N/A Rain Light Rain
2:58 PM 44.6 °F 40.2 °F 33.8 °F 66% 29.83 in 7.0 mi SW 8.1 mph 34.5 mph N/A Rain Light Rain
3:18 PM 48.2 °F - 30.2 °F 50% 29.80 in 10.0 mi SE 5.8 mph - N/A   Scattered Clouds
3:35 PM 48.6 °F - 28.6 °F 46% 29.77 in 10.0 mi ESE 8.1 mph - N/A   Scattered Clouds
3:38 PM 48.2 °F - 28.4 °F 46% 29.76 in 10.0 mi ESE 10.4 mph - N/A   Scattered Clouds
3:55 PM 48.6 °F - 26.4 °F 42% 29.77 in 10.0 mi South 23.0 mph 31.1 mph N/A   Mostly Cloudy
3:58 PM 48.2 °F - 26.6 °F 43% 29.77 in 10.0 mi SSE 16.1 mph 31.1 mph N/A   Overcast
4:15 PM 50.0 °F - 25.5 °F 39% 29.77 in 10.0 mi South 9.2 mph 20.7 mph N/A   Mostly Cloudy
4:18 PM 50.0 °F - 24.8 °F 37% 29.77 in 10.0 mi WSW 6.9 mph 20.7 mph N/A   Mostly Cloudy
4:35 PM 48.0 °F - 26.8 °F 44% 29.78 in 10.0 mi SW 17.3 mph 32.2 mph N/A   Mostly Cloudy
4:38 PM 48.2 °F - 26.6 °F 43% 29.78 in 10.0 mi WSW 17.3 mph 32.2 mph N/A   Overcast
4:55 PM 48.4 °F - 25.7 °F 41% 29.78 in 10.0 mi WSW 13.8 mph 27.6 mph N/A   Overcast
4:58 PM 48.2 °F - 26.6 °F 43% 29.78 in 10.0 mi WSW 19.6 mph 26.5 mph N/A   Overcast
5:15 PM 47.1 °F - 27.1 °F 46% 29.77 in 10.0 mi West 16.1 mph 21.9 mph N/A   Overcast
5:18 PM 46.4 °F 41.1 °F 26.6 °F 46% 29.77 in 10.0 mi SW 11.5 mph 21.9 mph N/A   Overcast
5:35 PM 45.7 °F 39.5 °F 28.8 °F 52% 29.79 in 10.0 mi WSW 13.8 mph 18.4 mph N/A   Overcast
5:37 PM 44.6 °F 37.4 °F 30.2 °F 57% 29.79 in 10.0 mi WSW 16.1 mph - N/A   Drizzle
5:55 PM 39.6 °F 33.0 °F 33.4 °F 79% 29.81 in 5.0 mi WSW 10.4 mph 24.2 mph N/A Rain Light Rain
5:58 PM 39.2 °F 31.6 °F 33.8 °F 81% 29.81 in 7.0 mi WSW 12.7 mph 24.2 mph N/A Rain Light Rain
6:15 PM 39.0 °F 34.8 °F 33.4 °F 80% 29.81 in 10.0 mi SSW 5.8 mph - N/A Rain Light Rain
6:18 PM 39.2 °F 34.2 °F 33.8 °F 81% 29.80 in 10.0 mi SW 6.9 mph - N/A Rain Light Rain
6:35 PM 37.6 °F 30.5 °F 32.7 °F 83% 29.83 in 4.0 mi SW 10.4 mph - N/A Rain Rain
6:37 PM 37.4 °F 28.9 °F 33.8 °F 87% 29.83 in 4.0 mi SW 13.8 mph 19.6 mph N/A Rain Light Rain
6:55 PM 35.6 °F 27.5 °F 32.9 °F 90% 29.83 in 4.0 mi SW 11.5 mph 17.3 mph 0.01 in Rain Light Rain
6:58 PM 35.6 °F 28.6 °F 33.8 °F 93% 29.83 in 4.0 mi SW 9.2 mph 17.3 mph 0.01 in Rain Light Rain
7:15 PM 33.6 °F 26.8 °F 31.6 °F 92% 29.86 in 1.2 mi West 8.1 mph 27.6 mph N/A Snow Light Snow
7:18 PM 33.8 °F 27.7 °F 30.2 °F 87% 29.86 in 1.0 mi West 6.9 mph 24.2 mph N/A Snow Light Snow
7:35 PM 32.5 °F 24.2 °F 30.2 °F 91% 29.86 in 1.5 mi SW 10.4 mph 18.4 mph 0.01 in Snow Light Snow
7:38 PM 32.0 °F 22.1 °F 28.4 °F 87% 29.87 in 2.5 mi WSW 13.8 mph 18.4 mph 0.01 in Snow Light Snow
7:55 PM 32.2 °F 22.3 °F 28.8 °F 87% 29.90 in 4.0 mi SW 13.8 mph 21.9 mph 0.01 in Snow Light Snow
7:58 PM 32.0 °F 23.0 °F 28.4 °F 87% 29.89 in 2.5 mi SW 11.5 mph 21.9 mph 0.01 in Snow Light Snow
8:15 PM 32.0 °F 26.4 °F 29.1 °F 89% 29.89 in 1.2 mi SW 5.8 mph - N/A Snow Light Snow
8:17 PM 32.0 °F 26.4 °F 28.4 °F 87% 29.90 in 1.2 mi SSW 5.8 mph - N/A Snow Light Snow
8:35 PM 31.8 °F 24.6 °F 29.3 °F 90% 29.89 in 4.0 mi South 8.1 mph - N/A Snow Light Snow
8:38 PM 32.0 °F 26.4 °F 28.4 °F 87% 29.89 in 7.0 mi South 5.8 mph - N/A Snow Light Snow
8:55 PM 32.0 °F - 29.1 °F 89% 29.89 in 10.0 mi Calm Calm - N/A Snow Light Snow
8:58 PM 32.0 °F - 28.4 °F 87% 29.90 in 10.0 mi Calm Calm - N/A   Overcast
9:15 PM 32.0 °F - 29.5 °F 90% 29.89 in 10.0 mi Calm Calm - N/A   Mostly Cloudy
9:18 PM 32.0 °F - 28.4 °F 87% 29.88 in 10.0 mi Calm Calm - N/A   Mostly Cloudy
9:35 PM 30.7 °F - 28.0 °F 90% 29.91 in 10.0 mi Calm Calm - N/A   Scattered Clouds
9:38 PM 30.2 °F 25.4 °F 28.4 °F 93% 29.91 in 10.0 mi WSW 4.6 mph - N/A   Scattered Clouds
9:55 PM 32.0 °F 25.6 °F 27.5 °F 83% 29.91 in 10.0 mi WSW 6.9 mph - N/A   Mostly Cloudy
9:58 PM 32.0 °F 28.7 °F 26.6 °F 80% 29.90 in 10.0 mi West 3.5 mph - N/A   Scattered Clouds
10:15 PM 32.0 °F 24.2 °F 27.1 °F 82% 29.91 in 10.0 mi WSW 9.2 mph - N/A   Scattered Clouds
10:18 PM 32.0 °F 24.2 °F 26.6 °F 80% 29.91 in 10.0 mi WSW 9.2 mph - N/A   Scattered Clouds
10:35 PM 32.0 °F 28.7 °F 27.0 °F 82% 29.93 in 10.0 mi West 3.5 mph - N/A   Scattered Clouds
10:38 PM 32.0 °F 25.6 °F 26.6 °F 80% 29.93 in 10.0 mi WSW 6.9 mph - N/A   Scattered Clouds
10:50 PM 31.5 °F 22.3 °F 25.7 °F 79% 29.93 in 10.0 mi North 11.5 mph 16.1 mph N/A   Mostly Cloudy
10:58 PM 28.4 °F 16.2 °F 24.8 °F 86% 29.94 in 10.0 mi North 17.3 mph - N/A   Overcast
11:15 PM 26.4 °F 14.0 °F 22.1 °F 84% 29.95 in 10.0 mi North 16.1 mph 21.9 mph N/A   Overcast
11:18 PM 26.6 °F 13.4 °F 21.2 °F 80% 29.95 in 10.0 mi North 18.4 mph - N/A   Overcast
11:35 PM 24.8 °F 12.9 °F 20.5 °F 84% 29.96 in 10.0 mi North 13.8 mph 24.2 mph N/A   Overcast
11:38 PM 24.8 °F 11.9 °F 19.4 °F 80% 29.96 in 10.0 mi NNW 16.1 mph 24.2 mph N/A   Overcast
11:55 PM 23.5 °F 12.4 °F 19.4 °F 84% 29.96 in 10.0 mi NNW 11.5 mph - N/A   Overcast
11:58 PM 23.0 °F 10.1 °F 19.4 °F 86% 29.96 in 10.0 mi North 15.0 mph - N/A   Overcast